Susqueda - Veïnat del Far (La Selva)





Hora UTC 10:10
Temperatura 15.5 ºC
Humitat 76.0 %
Pressió 1014.4 hPa
Pluja 1.8 mm
Velocitat vent 3.2 km/h
Direcció vent N

Dades diàries 2023-06-01



Hora UTC (hivern +1h; estiu +2h)
Temperatura (ºC) Humitat (%) Pressió (hPa) Velocitat vent (km/h) Precipitació (mm)
Hora UTC Aire Humitat Pressió Vel. Dir. Vel. Max Dir. Intent. màx 5 min.
00:05 12.3 85.0 1014.0 0.0 N 0.0 0.0
00:10 12.3 86.0 1014.0 0.0 N 4.8 0.0
00:15 12.4 86.0 1014.1 3.2 N 6.4 0.0
00:20 12.3 86.0 1014.0 0.0 N 6.4 0.0
00:25 12.3 86.0 1014.0 3.2 N 6.4 0.0
00:30 12.3 85.0 1014.1 0.0 N 6.4 0.0
00:35 12.2 85.0 1014.0 1.6 N 3.2 0.0
00:40 12.2 85.0 1013.9 0.0 N 3.2 0.0
00:45 12.1 85.0 1013.9 0.0 N 3.2 0.2
00:50 12.1 85.0 1014.0 0.0 N 4.8 0.2
00:55 11.9 86.0 1013.9 1.6 N 4.8 0.2
01:00 11.8 87.0 1013.8 3.2 N 3.2 0.2
01:05 11.8 87.0 1013.7 1.6 N 3.2 0.0
01:10 11.7 88.0 1013.8 3.2 N 3.2 0.2
01:15 11.7 88.0 1013.7 1.6 N 3.2 0.2
01:20 11.7 88.0 1013.5 3.2 N 4.8 0.2
01:25 11.7 88.0 1013.5 3.2 N 4.8 0.2
01:30 11.6 88.0 1013.5 3.2 N 6.4 0.0
01:35 11.6 88.0 1013.6 1.6 N 6.4 0.2
01:40 11.6 88.0 1013.5 1.6 N 3.2 0.0
01:45 11.6 88.0 1013.6 4.8 N 4.8 0.0
01:50 11.5 87.0 1013.6 3.2 N 6.4 0.0
01:55 11.4 87.0 1013.7 3.2 N 4.8 0.0
02:00 11.5 87.0 1013.6 3.2 N 4.8 0.0
02:05 11.6 88.0 1013.5 3.2 N 4.8 0.0
02:10 11.6 88.0 1013.6 1.6 N 4.8 0.0
02:15 11.6 88.0 1013.5 3.2 N 4.8 0.0
02:20 11.6 88.0 1013.5 3.2 N 4.8 0.0
02:25 11.6 88.0 1013.5 1.6 N 6.4 0.0
02:30 11.6 88.0 1013.4 4.8 N 6.4 0.0
02:35 11.6 88.0 1013.3 3.2 N 4.8 0.0
02:40 11.6 88.0 1013.2 3.2 N 4.8 0.0
02:45 11.6 88.0 1013.2 1.6 N 4.8 0.0
02:50 11.6 89.0 1013.3 3.2 N 4.8 0.0
02:55 11.6 89.0 1013.2 1.6 N 4.8 0.0
03:00 11.5 89.0 1013.2 3.2 N 4.8 0.0
03:05 11.5 89.0 1013.2 3.2 N 4.8 0.0
03:10 11.4 89.0 1013.2 3.2 N 6.4 0.0
03:15 11.5 90.0 1013.2 1.6 N 6.4 0.0
03:20 11.4 89.0 1013.2 3.2 N 4.8 0.0
03:25 11.4 90.0 1013.1 4.8 N 6.4 0.0
03:30 11.4 90.0 1013.2 4.8 N 6.4 0.0
03:35 11.4 90.0 1013.1 4.8 N 8.0 0.0
03:40 11.4 90.0 1013.2 3.2 N 8.0 0.0
03:45 11.4 90.0 1013.1 4.8 N 6.4 0.0
03:50 11.3 91.0 1013.2 6.4 N 6.4 0.0
03:55 11.3 91.0 1013.2 1.6 N 6.4 0.0
04:00 11.3 91.0 1013.1 1.6 N 4.8 0.0
04:05 11.2 90.0 1013.2 1.6 N 4.8 0.0
04:10 11.1 90.0 1013.1 4.8 N 4.8 0.0
04:15 11.1 89.0 1013.2 0.0 N 4.8 0.0
04:20 11.1 89.0 1013.2 1.6 N 4.8 0.0
04:25 11.1 89.0 1013.3 1.6 N 3.2 0.0
04:30 11.0 87.0 1013.3 0.0 N 3.2 0.0
04:35 11.1 86.0 1013.3 1.6 N 3.2 0.0
04:40 11.2 85.0 1013.4 1.6 N 3.2 0.0
04:45 11.3 85.0 1013.4 1.6 N 3.2 0.0
04:50 11.4 85.0 1013.4 0.0 N 3.2 0.0
04:55 11.3 85.0 1013.3 0.0 N 1.6 0.0
05:00 11.2 86.0 1013.3 3.2 N 3.2 0.0
05:05 11.2 86.0 1013.3 1.6 N 3.2 0.0
05:10 11.1 87.0 1013.3 3.2 N 3.2 0.0
05:15 11.0 87.0 1013.4 1.6 N 3.2 0.0
05:20 11.0 87.0 1013.4 0.0 N 3.2 0.0
05:25 11.0 87.0 1013.4 0.0 N 1.6 0.0
05:30 11.1 87.0 1013.4 1.6 N 3.2 0.0
05:35 11.1 88.0 1013.4 3.2 N 4.8 0.0
05:40 11.2 87.0 1013.5 1.6 N 4.8 0.0
05:45 11.3 87.0 1013.6 1.6 N 3.2 0.0
05:50 11.6 87.0 1013.5 3.2 N 4.8 0.0
05:55 11.5 85.0 1013.6 1.6 N 4.8 0.0
06:00 11.6 85.0 1013.4 4.8 N 4.8 0.0
06:05 11.7 85.0 1013.4 3.2 N 4.8 0.0
06:10 11.8 86.0 1013.5 4.8 N 4.8 0.0
06:15 11.8 86.0 1013.5 4.8 N 6.4 0.0
06:20 11.9 86.0 1013.6 3.2 N 6.4 0.0
06:25 12.0 87.0 1013.7 1.6 N 8.0 0.0
06:30 12.2 87.0 1013.7 4.8 N 8.0 0.0
06:35 12.3 87.0 1013.9 4.8 N 4.8 0.0
06:40 12.3 87.0 1013.9 3.2 N 4.8 0.0
06:45 12.4 87.0 1014.0 1.6 N 8.0 0.0
06:50 12.4 87.0 1014.2 0.0 N 8.0 0.0
06:55 12.5 86.0 1014.0 0.0 N 3.2 0.0
07:00 12.7 87.0 1014.0 0.0 N 3.2 0.0
07:05 12.9 86.0 1014.0 3.2 N 4.8 0.0
07:10 13.0 85.0 1014.0 3.2 N 4.8 0.0
07:15 13.1 85.0 1014.1 3.2 N 6.4 0.0
07:20 13.2 85.0 1014.1 4.8 N 6.4 0.0
07:25 13.1 85.0 1013.9 3.2 N 8.0 0.0
07:30 13.2 85.0 1014.0 0.0 N 6.4 0.0
07:35 13.2 85.0 1014.0 0.0 N 8.0 0.0
07:40 13.2 85.0 1013.9 3.2 N 8.0 0.0
07:45 13.3 84.0 1014.0 1.6 N 8.0 0.0
07:50 13.3 83.0 1014.1 0.0 N 8.0 0.0
07:55 13.4 83.0 1014.2 0.0 N 6.4 0.0
08:00 13.4 83.0 1014.2 0.0 N 11.3 0.0
08:05 13.4 84.0 1014.3 1.6 N 11.3 0.0
08:10 13.4 84.0 1014.4 4.8 N 6.4 0.0
08:15 13.4 84.0 1014.4 1.6 N 6.4 0.0
08:20 13.6 83.0 1014.3 1.6 N 4.8 0.0
08:25 13.9 82.0 1014.4 3.2 N 4.8 0.0
08:30 14.0 82.0 1014.5 0.0 N 4.8 0.0
08:35 14.0 82.0 1014.4 0.0 N 4.8 0.0
08:40 14.1 80.0 1014.4 0.0 N 3.2 0.0
08:45 13.9 80.0 1014.6 0.0 N 4.8 0.0
08:50 14.0 82.0 1014.7 0.0 N 4.8 0.0
08:55 13.9 81.0 1014.7 0.0 N 3.2 0.0
09:00 13.9 80.0 1014.6 3.2 N 6.4 0.0
09:05 14.0 81.0 1014.6 0.0 N 6.4 0.0
09:10 13.9 80.0 1014.6 1.6 N 4.8 0.0
09:15 13.9 81.0 1014.5 0.0 N 4.8 0.0
09:20 14.0 82.0 1014.5 3.2 N 3.2 0.0
09:25 14.2 83.0 1014.5 4.8 N 9.7 0.0
09:30 14.2 81.0 1014.5 1.6 N 9.7 0.0
09:35 14.3 81.0 1014.5 0.0 N 6.4 0.0
09:40 14.6 80.0 1014.4 4.8 N 6.4 0.0
09:45 14.7 79.0 1014.5 4.8 N 6.4 0.0
09:50 14.9 79.0 1014.5 0.0 N 6.4 0.0
09:55 15.2 77.0 1014.5 3.2 N 6.4 0.0
10:00 15.4 77.0 1014.3 4.8 N 8.0 0.0
10:05 15.4 78.0 1014.5 3.2 N 8.0 0.0
10:10 15.5 76.0 1014.4 3.2 N 6.4 0.0
Màxima 15.6 91.0 1014.7 6.4 N 11.3 0.2
Mínima 11.0 76.0 1013.1
Total 1.8